Time,TemperatureF,DewpointF,PressureIn,WindDirection,WindDirectionDegrees,WindSpeedMPH,WindSpeedGustMPH,Humidity,HourlyPrecipIn,Conditions,Clouds,dailyrainin,SoftwareType,DateUTC
2013-07-10 00:01:00,68.4,39.5,30.28,South,180,1.8,1.8,35,0.00,,,0.00,WUHU216HW,2013-07-10 06:01:00,
2013-07-10 00:06:00,68.2,39.3,30.28,South,180,1.1,1.8,35,0.00,,,0.00,WUHU216HW,2013-07-10 06:06:00,
2013-07-10 00:11:00,67.9,39.0,30.28,SW,225,0.0,1.8,35,0.00,,,0.00,WUHU216HW,2013-07-10 06:11:00,
2013-07-10 00:16:00,67.7,38.9,30.29,SSW,203,0.0,1.6,35,0.00,,,0.00,WUHU216HW,2013-07-10 06:16:00,
2013-07-10 00:21:00,67.3,39.2,30.29,WSW,248,0.4,1.3,36,0.00,,,0.00,WUHU216HW,2013-07-10 06:21:00,
2013-07-10 00:26:00,67.3,39.2,30.29,WSW,248,0.0,1.3,36,0.00,,,0.00,WUHU216HW,2013-07-10 06:26:00,
2013-07-10 00:31:00,67.1,39.9,30.29,SSW,203,0.4,1.8,37,0.00,,,0.00,WUHU216HW,2013-07-10 06:31:00,
2013-07-10 00:36:00,66.8,38.8,30.29,SW,225,0.0,1.8,36,0.00,,,0.00,WUHU216HW,2013-07-10 06:36:00,
2013-07-10 00:41:00,66.8,38.8,30.29,WSW,248,0.0,1.3,36,0.00,,,0.00,WUHU216HW,2013-07-10 06:41:00,
2013-07-10 00:46:00,66.6,38.6,30.29,WSW,248,1.1,1.3,36,0.00,,,0.00,WUHU216HW,2013-07-10 06:46:00,
2013-07-10 00:51:00,66.6,39.3,30.29,WSW,248,0.2,1.6,37,0.00,,,0.00,WUHU216HW,2013-07-10 06:51:00,
2013-07-10 00:56:00,66.6,39.3,30.29,West,270,1.6,1.8,37,0.00,,,0.00,WUHU216HW,2013-07-10 06:56:00,
2013-07-10 01:01:00,66.4,39.3,30.29,WSW,248,0.0,1.8,37,0.00,,,0.00,WUHU216HW,2013-07-10 07:01:00,
2013-07-10 01:06:00,66.2,39.1,30.29,WSW,248,0.0,1.3,37,0.00,,,0.00,WUHU216HW,2013-07-10 07:06:00,
2013-07-10 01:11:00,65.9,38.7,30.29,WSW,248,0.7,1.1,37,0.00,,,0.00,WUHU216HW,2013-07-10 07:11:00,
2013-07-10 01:16:00,65.7,39.3,30.29,SSW,203,0.0,1.1,38,0.00,,,0.00,WUHU216HW,2013-07-10 07:16:00,
2013-07-10 01:21:00,65.5,39.2,30.29,WSW,248,0.0,1.3,38,0.00,,,0.00,WUHU216HW,2013-07-10 07:21:00,
2013-07-10 01:26:00,65.5,39.2,30.29,SSW,203,0.0,1.3,38,0.00,,,0.00,WUHU216HW,2013-07-10 07:26:00,
2013-07-10 01:31:00,65.3,39.0,30.29,SSW,203,0.9,1.6,38,0.00,,,0.00,WUHU216HW,2013-07-10 07:31:00,
2013-07-10 01:36:00,65.2,39.5,30.29,SW,225,0.0,1.6,39,0.00,,,0.00,WUHU216HW,2013-07-10 07:36:00,
2013-07-10 01:41:00,64.8,39.3,30.29,SW,225,0.0,1.6,39,0.00,,,0.00,WUHU216HW,2013-07-10 07:41:00,
2013-07-10 01:46:00,64.8,39.3,30.29,West,270,1.1,2.0,39,0.00,,,0.00,WUHU216HW,2013-07-10 07:46:00,
2013-07-10 01:51:00,64.6,39.1,30.29,WSW,248,0.0,2.0,39,0.00,,,0.00,WUHU216HW,2013-07-10 07:51:00,
2013-07-10 01:56:00,64.4,38.9,30.29,WSW,248,0.0,1.1,39,0.00,,,0.00,WUHU216HW,2013-07-10 07:56:00,
2013-07-10 02:01:00,64.4,39.6,30.29,WSW,248,1.1,1.3,40,0.00,,,0.00,WUHU216HW,2013-07-10 08:01:00,
2013-07-10 02:06:00,64.3,39.4,30.30,WSW,248,0.0,1.3,40,0.00,,,0.00,WUHU216HW,2013-07-10 08:06:00,
2013-07-10 02:11:00,64.1,38.5,30.30,SW,225,0.7,1.1,39,0.00,,,0.00,WUHU216HW,2013-07-10 08:11:00,
2013-07-10 02:16:00,63.9,39.2,30.29,WSW,248,1.1,1.8,40,0.00,,,0.00,WUHU216HW,2013-07-10 08:16:00,
2013-07-10 02:21:00,63.7,39.0,30.29,WSW,248,0.0,1.8,40,0.00,,,0.00,WUHU216HW,2013-07-10 08:21:00,
2013-07-10 02:26:00,63.5,39.3,30.30,WSW,248,0.0,1.1,41,0.00,,,0.00,WUHU216HW,2013-07-10 08:26:00,
2013-07-10 02:31:00,63.4,39.3,30.29,WSW,248,0.9,1.1,41,0.00,,,0.00,WUHU216HW,2013-07-10 08:31:00,
2013-07-10 02:36:00,63.2,39.1,30.30,WSW,248,0.0,1.1,41,0.00,,,0.00,WUHU216HW,2013-07-10 08:36:00,
2013-07-10 02:41:00,63.0,38.9,30.29,WSW,248,0.0,0.9,41,0.00,,,0.00,WUHU216HW,2013-07-10 08:41:00,
2013-07-10 02:46:00,63.0,39.4,30.29,WSW,248,0.0,0.0,42,0.00,,,0.00,WUHU216HW,2013-07-10 08:46:00,
2013-07-10 02:51:00,63.0,40.1,30.29,SW,225,0.4,1.3,43,0.00,,,0.00,WUHU216HW,2013-07-10 08:51:00,
2013-07-10 02:56:00,62.8,40.4,30.29,SW,225,0.4,1.3,44,0.00,,,0.00,WUHU216HW,2013-07-10 08:56:00,
2013-07-10 03:01:00,63.0,40.6,30.28,SW,225,0.0,0.4,44,0.00,,,0.00,WUHU216HW,2013-07-10 09:01:00,
2013-07-10 03:06:00,63.0,41.2,30.28,WSW,248,0.7,0.9,45,0.00,,,0.00,WUHU216HW,2013-07-10 09:06:00,
2013-07-10 03:11:00,63.0,41.2,30.28,West,270,0.0,1.1,45,0.00,,,0.00,WUHU216HW,2013-07-10 09:11:00,
2013-07-10 03:16:00,63.4,42.1,30.28,SW,225,2.2,2.5,46,0.00,,,0.00,WUHU216HW,2013-07-10 09:16:00,
2013-07-10 03:21:00,63.7,42.4,30.27,West,270,0.7,2.5,46,0.00,,,0.00,WUHU216HW,2013-07-10 09:21:00,
2013-07-10 03:26:00,63.9,42.0,30.27,SE,135,0.9,2.9,45,0.00,,,0.00,WUHU216HW,2013-07-10 09:26:00,
2013-07-10 03:31:00,63.7,41.9,30.27,NNE,23,0.4,2.9,45,0.00,,,0.00,WUHU216HW,2013-07-10 09:31:00,
2013-07-10 03:36:00,63.5,41.7,30.27,North,0,0.0,0.9,45,0.00,,,0.00,WUHU216HW,2013-07-10 09:36:00,
2013-07-10 03:41:00,63.2,41.3,30.27,West,270,0.0,1.1,45,0.00,,,0.00,WUHU216HW,2013-07-10 09:41:00,
2013-07-10 03:46:00,63.0,41.2,30.27,West,270,0.0,1.1,45,0.00,,,0.00,WUHU216HW,2013-07-10 09:46:00,
2013-07-10 03:51:00,62.8,41.6,30.27,WSW,248,0.7,1.8,46,0.00,,,0.00,WUHU216HW,2013-07-10 09:51:00,
2013-07-10 03:56:00,62.5,40.7,30.27,SSE,158,1.6,1.8,45,0.00,,,0.00,WUHU216HW,2013-07-10 09:56:00,
2013-07-10 04:01:00,62.3,41.1,30.27,WSW,248,1.3,1.8,46,0.00,,,0.00,WUHU216HW,2013-07-10 10:01:00,
2013-07-10 04:06:00,62.1,41.0,30.26,WSW,248,0.0,1.8,46,0.00,,,0.00,WUHU216HW,2013-07-10 10:06:00,
2013-07-10 04:11:00,61.9,40.8,30.26,SE,135,0.0,1.3,46,0.00,,,0.00,WUHU216HW,2013-07-10 10:11:00,
2013-07-10 04:16:00,61.7,40.6,30.26,SW,225,0.0,1.1,46,0.00,,,0.00,WUHU216HW,2013-07-10 10:16:00,
2013-07-10 04:21:00,61.6,41.0,30.26,SW,225,0.0,0.7,47,0.00,,,0.00,WUHU216HW,2013-07-10 10:21:00,
2013-07-10 04:26:00,61.6,41.0,30.26,SSE,158,0.0,0.9,47,0.00,,,0.00,WUHU216HW,2013-07-10 10:26:00,
2013-07-10 04:31:00,61.2,41.3,30.25,West,270,0.0,2.5,48,0.00,,,0.00,WUHU216HW,2013-07-10 10:31:00,
2013-07-10 04:36:00,61.2,41.3,30.25,SSE,158,0.2,2.5,48,0.00,,,0.00,WUHU216HW,2013-07-10 10:36:00,
2013-07-10 04:41:00,61.0,41.1,30.25,West,270,1.8,1.8,48,0.00,,,0.00,WUHU216HW,2013-07-10 10:41:00,
2013-07-10 04:46:00,60.8,41.0,30.25,SSE,158,1.1,1.8,48,0.00,,,0.00,WUHU216HW,2013-07-10 10:46:00,
2013-07-10 04:51:00,60.7,40.8,30.25,WSW,248,0.9,1.8,48,0.00,,,0.00,WUHU216HW,2013-07-10 10:51:00,
2013-07-10 04:56:00,60.5,40.7,30.25,WSW,248,0.2,1.3,48,0.00,,,0.00,WUHU216HW,2013-07-10 10:56:00,
2013-07-10 05:01:00,60.5,40.7,30.25,WSW,248,0.0,1.1,48,0.00,,,0.00,WUHU216HW,2013-07-10 11:01:00,
2013-07-10 05:06:00,60.3,41.0,30.24,WSW,248,0.0,0.2,49,0.00,,,0.00,WUHU216HW,2013-07-10 11:06:00,
2013-07-10 05:11:00,60.1,40.9,30.24,SW,225,0.4,0.4,49,0.00,,,0.00,WUHU216HW,2013-07-10 11:11:00,
2013-07-10 05:16:00,60.1,40.9,30.24,SSW,203,0.0,0.4,49,0.00,,,0.00,WUHU216HW,2013-07-10 11:16:00,
2013-07-10 05:21:00,60.1,40.9,30.25,SW,225,0.0,0.4,49,0.00,,,0.00,WUHU216HW,2013-07-10 11:21:00,
2013-07-10 05:26:00,59.9,41.3,30.25,WSW,248,0.9,1.1,50,0.00,,,0.00,WUHU216HW,2013-07-10 11:26:00,
2013-07-10 05:31:00,60.1,41.5,30.25,WSW,248,0.0,1.1,50,0.00,,,0.00,WUHU216HW,2013-07-10 11:31:00,
2013-07-10 05:36:00,60.1,41.5,30.24,SW,225,0.4,1.3,50,0.00,,,0.00,WUHU216HW,2013-07-10 11:36:00,
2013-07-10 05:41:00,60.1,41.5,30.25,SSE,158,0.9,1.3,50,0.00,,,0.00,WUHU216HW,2013-07-10 11:41:00,
2013-07-10 05:46:00,59.9,41.3,30.24,SSW,203,0.9,1.1,50,0.00,,,0.00,WUHU216HW,2013-07-10 11:46:00,
2013-07-10 05:51:00,59.9,41.3,30.25,WSW,248,0.0,1.1,50,0.00,,,0.00,WUHU216HW,2013-07-10 11:51:00,
2013-07-10 05:56:00,59.8,41.1,30.25,WSW,248,0.0,1.1,50,0.00,,,0.00,WUHU216HW,2013-07-10 11:56:00,
2013-07-10 06:01:00,59.8,41.6,30.25,WSW,248,0.2,0.2,51,0.00,,,0.00,WUHU216HW,2013-07-10 12:01:00,
2013-07-10 06:06:00,59.9,41.8,30.25,WSW,248,0.4,1.3,51,0.00,,,0.00,WUHU216HW,2013-07-10 12:06:00,
2013-07-10 06:11:00,60.3,42.1,30.25,SSW,203,0.0,1.3,51,0.00,,,0.00,WUHU216HW,2013-07-10 12:11:00,
2013-07-10 06:16:00,60.8,43.1,30.25,WSW,248,0.9,1.3,52,0.00,,,0.00,WUHU216HW,2013-07-10 12:16:00,
2013-07-10 06:21:00,61.6,43.7,30.25,WSW,248,0.0,1.3,52,0.00,,,0.00,WUHU216HW,2013-07-10 12:21:00,
2013-07-10 06:26:00,62.3,43.9,30.25,WSW,248,0.0,0.9,51,0.00,,,0.00,WUHU216HW,2013-07-10 12:26:00,
2013-07-10 06:31:00,63.4,44.9,30.25,SSE,158,1.1,1.3,51,0.00,,,0.00,WUHU216HW,2013-07-10 12:31:00,
2013-07-10 06:36:00,64.1,45.0,30.25,SSE,158,0.0,1.3,50,0.00,,,0.00,WUHU216HW,2013-07-10 12:36:00,
2013-07-10 06:41:00,64.8,45.7,30.25,SSE,158,0.0,0.9,50,0.00,,,0.00,WUHU216HW,2013-07-10 12:41:00,
2013-07-10 06:46:00,65.5,46.9,30.25,ESE,113,0.4,0.9,51,0.00,,,0.00,WUHU216HW,2013-07-10 12:46:00,
2013-07-10 06:51:00,66.2,47.2,30.25,NNE,23,0.0,0.9,50,0.00,,,0.00,WUHU216HW,2013-07-10 12:51:00,
2013-07-10 06:56:00,66.6,47.5,30.25,North,0,1.1,1.8,50,0.00,,,0.00,WUHU216HW,2013-07-10 12:56:00,
2013-07-10 07:01:00,67.0,47.8,30.25,NNE,23,1.1,1.8,50,0.00,,,0.00,WUHU216HW,2013-07-10 13:01:00,
2013-07-10 07:06:00,67.3,49.2,30.25,ESE,113,2.7,2.7,52,0.00,,,0.00,WUHU216HW,2013-07-10 13:06:00,
2013-07-10 07:11:00,67.3,48.6,30.25,NE,45,1.1,2.7,51,0.00,,,0.00,WUHU216HW,2013-07-10 13:11:00,
2013-07-10 07:16:00,67.5,49.2,30.26,ESE,113,2.5,2.5,52,0.00,,,0.00,WUHU216HW,2013-07-10 13:16:00,
2013-07-10 07:21:00,67.5,50.2,30.25,NW,315,1.3,2.5,54,0.00,,,0.00,WUHU216HW,2013-07-10 13:21:00,
2013-07-10 07:26:00,67.7,50.9,30.26,NNE,23,2.2,2.5,55,0.00,,,0.00,WUHU216HW,2013-07-10 13:26:00,
2013-07-10 07:31:00,68.0,50.8,30.25,ESE,113,0.7,2.5,54,0.00,,,0.00,WUHU216HW,2013-07-10 13:31:00,
2013-07-10 07:36:00,68.8,51.0,30.26,ENE,68,1.8,2.7,53,0.00,,,0.00,WUHU216HW,2013-07-10 13:36:00,
2013-07-10 07:41:00,69.5,51.1,30.25,East,90,1.8,2.7,52,0.00,,,0.00,WUHU216HW,2013-07-10 13:41:00,
2013-07-10 07:46:00,70.6,52.6,30.26,ENE,68,1.8,2.5,53,0.00,,,0.00,WUHU216HW,2013-07-10 13:46:00,
2013-07-10 07:51:00,71.5,52.8,30.26,ESE,113,1.1,2.9,52,0.00,,,0.00,WUHU216HW,2013-07-10 13:51:00,
2013-07-10 07:56:00,72.4,52.7,30.26,ENE,68,2.5,3.1,50,0.00,,,0.00,WUHU216HW,2013-07-10 13:56:00,
2013-07-10 08:01:00,72.9,52.6,30.25,NE,45,4.0,4.0,49,0.00,,,0.00,WUHU216HW,2013-07-10 14:01:00,
2013-07-10 08:06:00,72.9,52.6,30.26,ENE,68,0.4,4.0,49,0.00,,,0.00,WUHU216HW,2013-07-10 14:06:00,
2013-07-10 08:11:00,73.8,53.4,30.25,North,0,3.4,4.0,49,0.00,,,0.00,WUHU216HW,2013-07-10 14:11:00,
2013-07-10 08:16:00,74.2,53.2,30.25,North,0,1.3,3.4,48,0.00,,,0.00,WUHU216HW,2013-07-10 14:16:00,
2013-07-10 08:21:00,73.8,52.8,30.25,East,90,1.1,3.6,48,0.00,,,0.00,WUHU216HW,2013-07-10 14:21:00,
2013-07-10 08:26:00,74.2,53.2,30.25,NNE,23,1.8,3.8,48,0.00,,,0.00,WUHU216HW,2013-07-10 14:26:00,
2013-07-10 08:31:00,74.7,53.1,30.25,NE,45,2.5,4.9,47,0.00,,,0.00,WUHU216HW,2013-07-10 14:31:00,
2013-07-10 08:36:00,74.5,53.6,30.25,North,0,1.8,4.9,48,0.00,,,0.00,WUHU216HW,2013-07-10 14:36:00,
2013-07-10 08:41:00,74.5,52.9,30.25,North,0,4.3,4.9,47,0.00,,,0.00,WUHU216HW,2013-07-10 14:41:00,
2013-07-10 08:46:00,74.5,53.6,30.25,NE,45,2.5,4.9,48,0.00,,,0.00,WUHU216HW,2013-07-10 14:46:00,
2013-07-10 08:51:00,75.1,53.5,30.25,SE,135,1.8,4.0,47,0.00,,,0.00,WUHU216HW,2013-07-10 14:51:00,
2013-07-10 08:56:00,75.8,54.1,30.25,North,0,0.0,4.7,47,0.00,,,0.00,WUHU216HW,2013-07-10 14:56:00,
2013-07-10 09:01:00,76.3,54.0,30.26,East,90,1.6,5.4,46,0.00,,,0.00,WUHU216HW,2013-07-10 15:01:00,
2013-07-10 09:06:00,76.5,54.1,30.26,North,0,2.5,6.0,46,0.00,,,0.00,WUHU216HW,2013-07-10 15:06:00,
2013-07-10 09:11:00,75.6,53.3,30.25,NNE,23,2.2,6.0,46,0.00,,,0.00,WUHU216HW,2013-07-10 15:11:00,
2013-07-10 09:16:00,75.8,54.1,30.25,SE,135,2.9,6.9,47,0.00,,,0.00,WUHU216HW,2013-07-10 15:16:00,
2013-07-10 09:21:00,76.1,53.8,30.25,North,0,4.7,8.3,46,0.00,,,0.00,WUHU216HW,2013-07-10 15:21:00,
2013-07-10 09:26:00,75.8,53.5,30.26,North,0,3.4,8.3,46,0.00,,,0.00,WUHU216HW,2013-07-10 15:26:00,
2013-07-10 09:31:00,74.9,53.3,30.26,North,0,4.7,7.4,47,0.00,,,0.00,WUHU216HW,2013-07-10 15:31:00,
2013-07-10 09:36:00,74.3,53.4,30.26,North,0,6.7,7.8,48,0.00,,,0.00,WUHU216HW,2013-07-10 15:36:00,
2013-07-10 09:41:00,74.3,53.9,30.26,North,0,5.6,7.8,49,0.00,,,0.00,WUHU216HW,2013-07-10 15:41:00,
2013-07-10 09:46:00,74.3,53.4,30.26,NNW,338,3.4,6.7,48,0.00,,,0.00,WUHU216HW,2013-07-10 15:46:00,
2013-07-10 09:51:00,74.7,53.7,30.26,North,0,2.5,6.7,48,0.00,,,0.00,WUHU216HW,2013-07-10 15:51:00,
2013-07-10 09:56:00,75.2,54.2,30.26,East,90,0.9,8.7,48,0.00,,,0.00,WUHU216HW,2013-07-10 15:56:00,
2013-07-10 10:01:00,75.8,54.1,30.26,ESE,113,4.7,8.7,47,0.00,,,0.00,WUHU216HW,2013-07-10 16:01:00,
2013-07-10 10:06:00,76.3,54.0,30.26,ESE,113,0.9,7.8,46,0.00,,,0.00,WUHU216HW,2013-07-10 16:06:00,
2013-07-10 10:11:00,76.7,54.3,30.26,NE,45,5.4,6.9,46,0.00,,,0.00,WUHU216HW,2013-07-10 16:11:00,
2013-07-10 10:16:00,76.0,54.3,30.26,ESE,113,2.5,6.9,47,0.00,,,0.00,WUHU216HW,2013-07-10 16:16:00,
2013-07-10 10:21:00,76.1,54.5,30.26,NNE,23,4.9,9.2,47,0.00,,,0.00,WUHU216HW,2013-07-10 16:21:00,
2013-07-10 10:26:00,76.0,54.3,30.26,NNE,23,6.3,9.2,47,0.00,,,0.00,WUHU216HW,2013-07-10 16:26:00,
2013-07-10 10:31:00,76.3,54.5,30.26,ENE,68,6.5,6.9,47,0.00,,,0.00,WUHU216HW,2013-07-10 16:31:00,
2013-07-10 10:36:00,76.7,54.9,30.26,NNW,338,1.6,8.1,47,0.00,,,0.00,WUHU216HW,2013-07-10 16:36:00,
2013-07-10 10:41:00,76.7,54.9,30.26,NNE,23,1.8,8.1,47,0.00,,,0.00,WUHU216HW,2013-07-10 16:41:00,
2013-07-10 10:46:00,77.0,54.6,30.26,ESE,113,2.7,7.6,46,0.00,,,0.00,WUHU216HW,2013-07-10 16:46:00,
2013-07-10 10:51:00,77.0,54.0,30.25,NNW,338,3.8,7.6,45,0.00,,,0.00,WUHU216HW,2013-07-10 16:51:00,
2013-07-10 10:56:00,75.6,53.3,30.25,NNE,23,2.5,6.7,46,0.00,,,0.00,WUHU216HW,2013-07-10 16:56:00,
2013-07-10 11:01:00,75.8,54.1,30.25,ESE,113,3.8,6.7,47,0.00,,,0.00,WUHU216HW,2013-07-10 17:01:00,
2013-07-10 11:06:00,76.5,54.1,30.25,ESE,113,2.2,5.1,46,0.00,,,0.00,WUHU216HW,2013-07-10 17:06:00,
2013-07-10 11:11:00,77.6,54.5,30.24,WSW,248,1.1,5.6,45,0.00,,,0.00,WUHU216HW,2013-07-10 17:11:00,
2013-07-10 11:16:00,78.1,54.4,30.24,ENE,68,1.3,7.4,44,0.00,,,0.00,WUHU216HW,2013-07-10 17:16:00,
2013-07-10 11:21:00,79.2,54.7,30.24,NW,315,0.9,7.4,43,0.00,,,0.00,WUHU216HW,2013-07-10 17:21:00,
2013-07-10 11:26:00,79.0,53.9,30.24,ESE,113,2.7,4.9,42,0.00,,,0.00,WUHU216HW,2013-07-10 17:26:00,
2013-07-10 11:31:00,79.7,54.6,30.24,ESE,113,2.7,6.7,42,0.00,,,0.00,WUHU216HW,2013-07-10 17:31:00,
2013-07-10 11:36:00,80.8,55.0,30.24,ESE,113,2.9,6.7,41,0.00,,,0.00,WUHU216HW,2013-07-10 17:36:00,
2013-07-10 11:41:00,81.2,54.6,30.24,NE,45,3.4,7.4,40,0.00,,,0.00,WUHU216HW,2013-07-10 17:41:00,
2013-07-10 11:46:00,80.3,54.5,30.24,North,0,3.1,8.5,41,0.00,,,0.00,WUHU216HW,2013-07-10 17:46:00,
2013-07-10 11:51:00,80.3,54.5,30.25,NE,45,4.7,8.5,41,0.00,,,0.00,WUHU216HW,2013-07-10 17:51:00,
2013-07-10 11:56:00,80.3,54.5,30.25,NE,45,4.5,8.3,41,0.00,,,0.00,WUHU216HW,2013-07-10 17:56:00,
2013-07-10 12:01:00,80.3,53.8,30.25,ENE,68,2.7,9.4,40,0.00,,,0.00,WUHU216HW,2013-07-10 18:01:00,
2013-07-10 12:06:00,80.6,54.2,30.24,NNE,23,4.7,9.4,40,0.00,,,0.00,WUHU216HW,2013-07-10 18:06:00,
2013-07-10 12:11:00,80.6,54.2,30.24,ESE,113,4.0,6.3,40,0.00,,,0.00,WUHU216HW,2013-07-10 18:11:00,
2013-07-10 12:16:00,80.1,53.7,30.25,North,0,0.4,4.7,40,0.00,,,0.00,WUHU216HW,2013-07-10 18:16:00,
2013-07-10 12:21:00,79.6,53.2,30.25,ESE,113,3.1,3.4,40,0.00,,,0.00,WUHU216HW,2013-07-10 18:21:00,
2013-07-10 12:26:00,78.8,52.6,30.25,North,0,1.8,4.0,40,0.00,,,0.00,WUHU216HW,2013-07-10 18:26:00,
2013-07-10 12:31:00,78.1,52.6,30.26,North,0,2.2,4.9,41,0.00,,,0.00,WUHU216HW,2013-07-10 18:31:00,
2013-07-10 12:36:00,77.2,52.3,30.26,East,90,1.8,4.9,42,0.00,,,0.00,WUHU216HW,2013-07-10 18:36:00,
2013-07-10 12:41:00,76.9,52.7,30.26,North,0,4.7,5.4,43,0.00,,,0.00,WUHU216HW,2013-07-10 18:41:00,
2013-07-10 12:46:00,74.7,53.7,30.24,North,0,3.8,5.6,48,0.00,,,0.00,WUHU216HW,2013-07-10 18:46:00,
2013-07-10 12:51:00,72.9,54.6,30.23,SSE,158,1.3,5.6,53,0.01,,,0.01,WUHU216HW,2013-07-10 18:51:00,
2013-07-10 12:56:00,72.5,57.9,30.23,ESE,113,1.8,3.8,60,0.01,,,0.01,WUHU216HW,2013-07-10 18:56:00,
2013-07-10 13:01:00,73.1,58.3,30.23,WNW,293,1.1,4.0,60,0.01,,,0.01,WUHU216HW,2013-07-10 19:01:00,
2013-07-10 13:06:00,73.6,57.9,30.23,West,270,4.3,4.7,58,0.01,,,0.01,WUHU216HW,2013-07-10 19:06:00,
2013-07-10 13:11:00,74.3,57.6,30.23,NNE,23,2.7,4.7,56,0.01,,,0.01,WUHU216HW,2013-07-10 19:11:00,
2013-07-10 13:16:00,75.2,57.4,30.23,NE,45,1.8,4.0,54,0.01,,,0.01,WUHU216HW,2013-07-10 19:16:00,
2013-07-10 13:21:00,76.3,58.0,30.23,SW,225,1.8,4.0,53,0.01,,,0.01,WUHU216HW,2013-07-10 19:21:00,
2013-07-10 13:26:00,77.4,57.9,30.23,ENE,68,0.4,3.4,51,0.01,,,0.01,WUHU216HW,2013-07-10 19:26:00,
2013-07-10 13:31:00,78.3,57.6,30.23,SSE,158,1.8,3.8,49,0.01,,,0.01,WUHU216HW,2013-07-10 19:31:00,
2013-07-10 13:36:00,79.9,58.4,30.23,SSW,203,3.1,5.6,48,0.01,,,0.01,WUHU216HW,2013-07-10 19:36:00,
2013-07-10 13:41:00,81.2,57.7,30.23,SE,135,1.1,5.6,45,0.01,,,0.01,WUHU216HW,2013-07-10 19:41:00,
2013-07-10 13:46:00,81.5,56.8,30.22,ESE,113,2.9,7.8,43,0.00,,,0.01,WUHU216HW,2013-07-10 19:46:00,
2013-07-10 13:51:00,81.9,56.5,30.22,South,180,2.7,7.8,42,0.00,,,0.01,WUHU216HW,2013-07-10 19:51:00,
2013-07-10 13:57:00,81.4,56.1,30.22,SSE,158,1.1,6.9,42,0.00,,,0.01,WUHU216HW,2013-07-10 19:57:00,
2013-07-10 14:02:00,81.2,55.9,30.22,SSW,203,4.0,6.9,42,0.00,,,0.01,WUHU216HW,2013-07-10 20:02:00,
2013-07-10 14:07:00,81.2,55.3,30.22,South,180,1.8,6.3,41,0.00,,,0.01,WUHU216HW,2013-07-10 20:07:00,
2013-07-10 14:12:00,81.4,54.8,30.21,SW,225,0.7,4.0,40,0.00,,,0.01,WUHU216HW,2013-07-10 20:12:00,
2013-07-10 14:17:00,81.5,54.2,30.21,West,270,2.5,3.1,39,0.00,,,0.01,WUHU216HW,2013-07-10 20:17:00,
2013-07-10 14:22:00,81.5,54.2,30.21,ESE,113,3.8,3.8,39,0.00,,,0.01,WUHU216HW,2013-07-10 20:22:00,
2013-07-10 14:27:00,81.0,53.7,30.21,SSW,203,1.1,4.3,39,0.00,,,0.01,WUHU216HW,2013-07-10 20:27:00,
2013-07-10 14:32:00,81.4,54.8,30.21,SSW,203,0.4,4.3,40,0.00,,,0.01,WUHU216HW,2013-07-10 20:32:00,
2013-07-10 14:37:00,81.5,54.2,30.20,SSE,158,2.5,5.1,39,0.00,,,0.01,WUHU216HW,2013-07-10 20:37:00,
2013-07-10 14:42:00,81.4,54.1,30.20,SSE,158,1.1,5.1,39,0.00,,,0.01,WUHU216HW,2013-07-10 20:42:00,
2013-07-10 14:47:00,81.5,55.0,30.20,ESE,113,2.5,4.9,40,0.00,,,0.01,WUHU216HW,2013-07-10 20:47:00,
2013-07-10 14:52:00,81.9,55.4,30.19,NNW,338,0.4,3.8,40,0.00,,,0.01,WUHU216HW,2013-07-10 20:52:00,
2013-07-10 14:57:00,82.6,56.0,30.19,East,90,2.5,3.8,40,0.00,,,0.01,WUHU216HW,2013-07-10 20:57:00,
2013-07-10 15:02:00,83.0,54.7,30.18,ENE,68,2.7,3.4,38,0.00,,,0.01,WUHU216HW,2013-07-10 21:02:00,
2013-07-10 15:07:00,83.2,54.9,30.19,SE,135,1.3,4.7,38,0.00,,,0.01,WUHU216HW,2013-07-10 21:07:00,
2013-07-10 15:12:00,83.2,54.9,30.19,SE,135,1.8,4.7,38,0.00,,,0.01,WUHU216HW,2013-07-10 21:12:00,
2013-07-10 15:17:00,83.2,53.3,30.18,SSW,203,1.1,5.4,36,0.00,,,0.01,WUHU216HW,2013-07-10 21:17:00,
2013-07-10 15:22:00,83.0,52.3,30.18,East,90,1.3,6.3,35,0.00,,,0.01,WUHU216HW,2013-07-10 21:22:00,
2013-07-10 15:27:00,83.0,53.1,30.18,WNW,293,0.9,6.3,36,0.00,,,0.01,WUHU216HW,2013-07-10 21:27:00,
2013-07-10 15:32:00,83.2,53.3,30.18,SW,225,2.5,5.1,36,0.00,,,0.01,WUHU216HW,2013-07-10 21:32:00,
2013-07-10 15:37:00,83.5,51.2,30.17,ESE,113,4.5,7.8,33,0.00,,,0.01,WUHU216HW,2013-07-10 21:37:00,
2013-07-10 15:42:00,83.3,51.0,30.17,SW,225,3.4,7.8,33,0.00,,,0.01,WUHU216HW,2013-07-10 21:42:00,
2013-07-10 15:47:00,83.5,50.4,30.16,ESE,113,4.9,4.9,32,0.00,,,0.01,WUHU216HW,2013-07-10 21:47:00,
2013-07-10 15:52:00,83.5,50.4,30.16,North,0,3.4,4.9,32,0.00,,,0.01,WUHU216HW,2013-07-10 21:52:00,
2013-07-10 15:57:00,83.5,50.4,30.16,ESE,113,6.3,6.3,32,0.00,,,0.01,WUHU216HW,2013-07-10 21:57:00,
2013-07-10 16:02:00,83.5,50.4,30.16,East,90,3.8,6.3,32,0.00,,,0.01,WUHU216HW,2013-07-10 22:02:00,
2013-07-10 16:07:00,83.3,49.5,30.16,ENE,68,1.1,6.3,31,0.00,,,0.01,WUHU216HW,2013-07-10 22:07:00,
2013-07-10 16:12:00,83.3,49.5,30.16,SE,135,2.0,4.9,31,0.00,,,0.01,WUHU216HW,2013-07-10 22:12:00,
2013-07-10 16:17:00,83.7,49.8,30.16,WSW,248,2.0,4.9,31,0.00,,,0.01,WUHU216HW,2013-07-10 22:17:00,
2013-07-10 16:22:00,84.1,49.3,30.16,North,0,1.3,3.8,30,0.00,,,0.01,WUHU216HW,2013-07-10 22:22:00,
2013-07-10 16:27:00,84.2,49.5,30.16,SE,135,2.2,5.8,30,0.00,,,0.01,WUHU216HW,2013-07-10 22:27:00,
2013-07-10 16:32:00,84.2,48.4,30.15,North,0,1.1,5.8,29,0.00,,,0.01,WUHU216HW,2013-07-10 22:32:00,
2013-07-10 16:37:00,84.4,48.6,30.15,SSE,158,1.1,6.7,29,0.00,,,0.01,WUHU216HW,2013-07-10 22:37:00,
2013-07-10 16:42:00,84.2,48.4,30.15,SSE,158,2.5,6.7,29,0.00,,,0.01,WUHU216HW,2013-07-10 22:42:00,
2013-07-10 16:47:00,84.2,49.5,30.15,ENE,68,2.0,4.3,30,0.00,,,0.01,WUHU216HW,2013-07-10 22:47:00,
2013-07-10 16:52:00,84.1,49.3,30.15,SSE,158,1.3,6.3,30,0.00,,,0.01,WUHU216HW,2013-07-10 22:52:00,
2013-07-10 16:57:00,84.1,50.1,30.15,NNE,23,2.9,6.3,31,0.00,,,0.01,WUHU216HW,2013-07-10 22:57:00,
2013-07-10 17:02:00,84.2,51.1,30.15,ENE,68,2.9,4.5,32,0.00,,,0.01,WUHU216HW,2013-07-10 23:02:00,
2013-07-10 17:07:00,84.4,50.5,30.15,SSW,203,3.6,4.5,31,0.00,,,0.01,WUHU216HW,2013-07-10 23:07:00,
2013-07-10 17:12:00,84.6,50.6,30.15,WSW,248,0.4,5.4,31,0.00,,,0.01,WUHU216HW,2013-07-10 23:12:00,
2013-07-10 17:17:00,85.0,50.9,30.15,SSW,203,3.6,5.4,31,0.00,,,0.01,WUHU216HW,2013-07-10 23:17:00,
2013-07-10 17:22:00,85.1,51.1,30.15,SE,135,2.0,3.6,31,0.00,,,0.01,WUHU216HW,2013-07-10 23:22:00,
2013-07-10 17:27:00,85.0,50.9,30.15,SE,135,1.6,3.6,31,0.00,,,0.01,WUHU216HW,2013-07-10 23:27:00,
2013-07-10 17:32:00,84.4,51.2,30.15,ENE,68,2.0,3.4,32,0.00,,,0.01,WUHU216HW,2013-07-10 23:32:00,
2013-07-10 17:37:00,84.1,51.0,30.14,SSE,158,0.2,3.4,32,0.00,,,0.01,WUHU216HW,2013-07-10 23:37:00,
2013-07-10 17:42:00,84.1,51.8,30.14,South,180,4.3,5.4,33,0.00,,,0.01,WUHU216HW,2013-07-10 23:42:00,
2013-07-10 17:47:00,84.1,51.0,30.14,SW,225,3.4,5.4,32,0.00,,,0.01,WUHU216HW,2013-07-10 23:47:00,
2013-07-10 17:52:00,84.4,52.0,30.14,SW,225,1.3,4.7,33,0.00,,,0.01,WUHU216HW,2013-07-10 23:52:00,
2013-07-10 17:57:00,84.6,51.4,30.13,SSE,158,3.4,4.7,32,0.00,,,0.01,WUHU216HW,2013-07-10 23:57:00,
2013-07-10 18:02:00,84.6,51.4,30.13,SSE,158,1.1,4.9,32,0.00,,,0.01,WUHU216HW,2013-07-11 00:02:00,
2013-07-10 18:07:00,84.6,51.4,30.13,South,180,3.6,4.9,32,0.00,,,0.01,WUHU216HW,2013-07-11 00:07:00,
2013-07-10 18:12:00,84.4,51.2,30.13,SSE,158,1.6,4.5,32,0.00,,,0.01,WUHU216HW,2013-07-11 00:12:00,
2013-07-10 18:17:00,84.2,51.1,30.13,South,180,1.3,4.5,32,0.00,,,0.01,WUHU216HW,2013-07-11 00:17:00,
2013-07-10 18:22:00,84.1,51.0,30.13,SSW,203,0.2,4.5,32,0.00,,,0.01,WUHU216HW,2013-07-11 00:22:00,
2013-07-10 18:27:00,84.1,51.0,30.12,SE,135,1.1,4.5,32,0.00,,,0.01,WUHU216HW,2013-07-11 00:27:00,
2013-07-10 18:32:00,83.9,51.6,30.12,North,0,1.1,2.7,33,0.00,,,0.01,WUHU216HW,2013-07-11 00:32:00,
2013-07-10 18:37:00,83.9,51.6,30.12,SSE,158,1.1,5.1,33,0.00,,,0.01,WUHU216HW,2013-07-11 00:37:00,
2013-07-10 18:42:00,83.7,51.4,30.12,North,0,1.8,5.1,33,0.00,,,0.01,WUHU216HW,2013-07-11 00:42:00,
2013-07-10 18:47:00,83.9,51.6,30.12,SSE,158,0.0,2.7,33,0.00,,,0.01,WUHU216HW,2013-07-11 00:47:00,
2013-07-10 18:52:00,83.7,51.4,30.12,WSW,248,1.1,2.9,33,0.00,,,0.01,WUHU216HW,2013-07-11 00:52:00,
2013-07-10 18:57:00,83.5,51.2,30.11,SSE,158,1.8,3.6,33,0.00,,,0.01,WUHU216HW,2013-07-11 00:57:00,
2013-07-10 19:02:00,83.3,51.8,30.11,NNW,338,1.1,3.6,34,0.00,,,0.01,WUHU216HW,2013-07-11 01:02:00,
2013-07-10 19:07:00,83.2,51.7,30.11,WSW,248,0.9,3.1,34,0.00,,,0.01,WUHU216HW,2013-07-11 01:07:00,
2013-07-10 19:12:00,82.8,52.2,30.11,West,270,1.1,2.9,35,0.00,,,0.01,WUHU216HW,2013-07-11 01:12:00,
2013-07-10 19:17:00,82.4,51.8,30.12,NW,315,1.1,2.7,35,0.00,,,0.01,WUHU216HW,2013-07-11 01:17:00,
2013-07-10 19:22:00,82.3,51.7,30.11,SW,225,0.4,2.0,35,0.00,,,0.01,WUHU216HW,2013-07-11 01:22:00,
2013-07-10 19:27:00,82.1,53.1,30.11,East,90,0.0,1.8,37,0.00,,,0.01,WUHU216HW,2013-07-11 01:27:00,
2013-07-10 19:32:00,81.7,53.6,30.12,South,180,0.4,2.9,38,0.00,,,0.01,WUHU216HW,2013-07-11 01:32:00,
2013-07-10 19:37:00,81.4,54.8,30.12,NNE,23,4.0,4.5,40,0.00,,,0.01,WUHU216HW,2013-07-11 01:37:00,
2013-07-10 19:42:00,81.0,54.6,30.12,North,0,1.1,4.5,40,0.00,,,0.01,WUHU216HW,2013-07-11 01:42:00,
2013-07-10 19:47:00,80.6,54.2,30.12,NNW,338,1.1,3.4,40,0.00,,,0.01,WUHU216HW,2013-07-11 01:47:00,
2013-07-10 19:52:00,80.5,54.0,30.13,East,90,1.1,2.5,40,0.00,,,0.01,WUHU216HW,2013-07-11 01:52:00,
2013-07-10 19:57:00,80.1,53.7,30.13,ESE,113,1.6,2.2,40,0.00,,,0.01,WUHU216HW,2013-07-11 01:57:00,
2013-07-10 20:02:00,79.7,53.4,30.13,WSW,248,0.7,2.2,40,0.00,,,0.01,WUHU216HW,2013-07-11 02:02:00,
2013-07-10 20:07:00,79.6,53.2,30.13,WSW,248,1.6,2.0,40,0.00,,,0.01,WUHU216HW,2013-07-11 02:07:00,
2013-07-10 20:12:00,79.2,52.9,30.13,West,270,1.6,2.2,40,0.00,,,0.01,WUHU216HW,2013-07-11 02:12:00,
2013-07-10 20:17:00,78.8,52.6,30.13,SW,225,1.1,2.5,40,0.00,,,0.01,WUHU216HW,2013-07-11 02:17:00,
2013-07-10 20:22:00,78.7,52.4,30.14,SW,225,0.9,2.5,40,0.00,,,0.01,WUHU216HW,2013-07-11 02:22:00,
2013-07-10 20:27:00,78.5,52.2,30.14,WSW,248,0.7,1.3,40,0.00,,,0.01,WUHU216HW,2013-07-11 02:27:00,
2013-07-10 20:32:00,78.1,51.9,30.14,WSW,248,0.7,1.3,40,0.00,,,0.01,WUHU216HW,2013-07-11 02:32:00,
2013-07-10 20:37:00,77.6,51.4,30.14,WSW,248,1.1,1.8,40,0.00,,,0.01,WUHU216HW,2013-07-11 02:37:00,
2013-07-10 20:42:00,77.2,51.1,30.14,WSW,248,0.0,1.8,40,0.00,,,0.01,WUHU216HW,2013-07-11 02:42:00,
2013-07-10 20:47:00,77.0,50.9,30.14,SW,225,0.0,1.8,40,0.00,,,0.01,WUHU216HW,2013-07-11 02:47:00,
2013-07-10 20:52:00,76.5,50.5,30.14,WSW,248,0.0,1.1,40,0.00,,,0.01,WUHU216HW,2013-07-11 02:52:00,
2013-07-10 20:57:00,76.1,50.1,30.14,WSW,248,0.0,1.1,40,0.00,,,0.01,WUHU216HW,2013-07-11 02:57:00,
2013-07-10 21:02:00,75.6,49.7,30.15,WSW,248,0.0,0.0,40,0.00,,,0.01,WUHU216HW,2013-07-11 03:02:00,
2013-07-10 21:07:00,75.2,49.3,30.15,WSW,248,0.0,1.1,40,0.00,,,0.01,WUHU216HW,2013-07-11 03:07:00,
2013-07-10 21:12:00,74.9,49.0,30.15,SSE,158,0.9,1.1,40,0.00,,,0.01,WUHU216HW,2013-07-11 03:12:00,
2013-07-10 21:17:00,74.5,48.7,30.15,SSE,158,0.0,1.1,40,0.00,,,0.01,WUHU216HW,2013-07-11 03:17:00,
2013-07-10 21:22:00,74.0,48.8,30.16,West,270,0.4,1.6,41,0.00,,,0.01,WUHU216HW,2013-07-11 03:22:00,
2013-07-10 21:27:00,73.8,49.2,30.16,WSW,248,0.0,1.8,42,0.00,,,0.01,WUHU216HW,2013-07-11 03:27:00,
2013-07-10 21:32:00,73.6,49.1,30.16,WSW,248,0.4,1.8,42,0.00,,,0.01,WUHU216HW,2013-07-11 03:32:00,
2013-07-10 21:37:00,73.4,49.5,30.17,SE,135,0.9,1.8,43,0.00,,,0.01,WUHU216HW,2013-07-11 03:37:00,
2013-07-10 21:42:00,73.3,50.0,30.17,WSW,248,1.8,1.8,44,0.00,,,0.01,WUHU216HW,2013-07-11 03:42:00,
2013-07-10 21:47:00,73.1,49.8,30.17,SSE,158,1.1,1.8,44,0.00,,,0.01,WUHU216HW,2013-07-11 03:47:00,
2013-07-10 21:52:00,73.1,49.8,30.17,SW,225,0.0,1.8,44,0.00,,,0.01,WUHU216HW,2013-07-11 03:52:00,
2013-07-10 21:57:00,72.7,50.1,30.17,South,180,1.6,1.8,45,0.00,,,0.01,WUHU216HW,2013-07-11 03:57:00,
2013-07-10 22:01:00,72.5,49.9,30.16,SW,225,0.4,1.8,45,0.00,,,0.01,WUHU216HW,2013-07-11 04:01:00,
2013-07-10 22:06:00,72.2,50.1,30.16,SSE,158,0.4,1.8,46,0.00,,,0.01,WUHU216HW,2013-07-11 04:06:00,
2013-07-10 22:11:00,71.8,49.8,30.17,SSE,158,0.0,1.1,46,0.00,,,0.01,WUHU216HW,2013-07-11 04:11:00,
2013-07-10 22:16:00,71.6,49.7,30.16,SW,225,0.0,1.1,46,0.00,,,0.01,WUHU216HW,2013-07-11 04:16:00,
2013-07-10 22:21:00,71.3,49.3,30.16,SE,135,0.0,1.1,46,0.00,,,0.01,WUHU216HW,2013-07-11 04:21:00,
2013-07-10 22:26:00,70.9,49.6,30.17,West,270,1.1,1.3,47,0.00,,,0.01,WUHU216HW,2013-07-11 04:26:00,
2013-07-10 22:31:00,70.9,50.8,30.16,West,270,0.4,3.4,49,0.00,,,0.01,WUHU216HW,2013-07-11 04:31:00,
2013-07-10 22:36:00,70.9,50.2,30.17,SSE,158,1.3,3.4,48,0.00,,,0.01,WUHU216HW,2013-07-11 04:36:00,
2013-07-10 22:41:00,70.7,50.1,30.17,WSW,248,1.3,1.8,48,0.00,,,0.01,WUHU216HW,2013-07-11 04:41:00,
2013-07-10 22:46:00,70.4,49.7,30.17,WSW,248,0.0,1.8,48,0.00,,,0.01,WUHU216HW,2013-07-11 04:46:00,
2013-07-10 22:51:00,70.0,49.4,30.18,WSW,248,0.9,1.8,48,0.00,,,0.01,WUHU216HW,2013-07-11 04:51:00,
2013-07-10 22:56:00,69.8,51.4,30.18,NNE,23,1.1,4.7,52,0.00,,,0.01,WUHU216HW,2013-07-11 04:56:00,
2013-07-10 23:01:00,69.8,51.0,30.18,NNE,23,2.0,4.7,51,0.00,,,0.01,WUHU216HW,2013-07-11 05:01:00,
2013-07-10 23:06:00,69.5,51.1,30.18,West,270,1.1,2.9,52,0.00,,,0.01,WUHU216HW,2013-07-11 05:06:00,
2013-07-10 23:11:00,69.3,51.4,30.18,NE,45,0.4,2.9,53,0.00,,,0.01,WUHU216HW,2013-07-11 05:11:00,
2013-07-10 23:16:00,68.9,51.1,30.18,West,270,1.3,2.0,53,0.00,,,0.01,WUHU216HW,2013-07-11 05:16:00,
2013-07-10 23:21:00,68.8,52.4,30.18,WNW,293,0.4,3.1,56,0.00,,,0.01,WUHU216HW,2013-07-11 05:21:00,
2013-07-10 23:26:00,68.6,51.8,30.18,NNE,23,0.0,3.1,55,0.00,,,0.01,WUHU216HW,2013-07-11 05:26:00,
2013-07-10 23:31:00,68.4,51.6,30.18,WSW,248,0.0,1.6,55,0.00,,,0.01,WUHU216HW,2013-07-11 05:31:00,
2013-07-10 23:36:00,68.0,51.2,30.18,WNW,293,0.9,1.6,55,0.00,,,0.01,WUHU216HW,2013-07-11 05:36:00,
2013-07-10 23:41:00,68.0,51.7,30.18,South,180,1.6,3.4,56,0.00,,,0.01,WUHU216HW,2013-07-11 05:41:00,
2013-07-10 23:46:00,67.9,51.6,30.18,SSE,158,0.4,3.4,56,0.00,,,0.01,WUHU216HW,2013-07-11 05:46:00,
2013-07-10 23:51:00,67.7,51.4,30.18,NNW,338,0.2,2.7,56,0.00,,,0.01,WUHU216HW,2013-07-11 05:51:00,
2013-07-10 23:56:00,67.5,51.2,30.18,SSW,203,0.7,1.1,56,0.00,,,0.01,WUHU216HW,2013-07-11 05:56:00,